Time,TemperatureF,DewpointF,PressureIn,WindDirection,WindDirectionDegrees,WindSpeedMPH,WindSpeedGustMPH,Humidity,HourlyPrecipIn,Conditions,Clouds,dailyrainin,SolarRadiationWatts/m^2,SoftwareType,DateUTC
2013-02-11 00:01:00,33.1,30.2,30.25,SSE,157,0.0,0.0,86,0.03,,,0.05,0.0,meteohub,2013-02-11 05:01:00,
2013-02-11 00:02:00,33.1,30.2,30.25,SSE,157,0.0,0.0,86,0.03,,,0.05,0.0,meteohub,2013-02-11 05:02:00,
2013-02-11 00:04:00,33.1,30.2,30.25,SSE,157,0.0,0.0,86,0.03,,,0.05,0.0,meteohub,2013-02-11 05:04:00,
2013-02-11 00:07:00,33.1,30.2,30.26,SSE,157,0.0,0.0,86,0.02,,,0.00,0.0,meteohub,2013-02-11 05:07:00,
2013-02-11 00:12:00,33.1,30.4,30.25,SSE,157,0.0,0.0,87,0.02,,,0.00,0.0,meteohub,2013-02-11 05:12:00,
2013-02-11 00:17:00,33.1,30.4,30.25,SSE,157,0.0,2.0,87,0.01,,,0.00,0.0,meteohub,2013-02-11 05:17:00,
2013-02-11 00:22:00,33.1,30.4,30.25,SSE,157,0.0,2.0,87,0.01,,,0.00,0.0,meteohub,2013-02-11 05:22:00,
2013-02-11 00:27:00,33.1,30.4,30.25,SSE,157,0.0,2.0,87,0.01,,,0.00,0.0,meteohub,2013-02-11 05:27:00,
2013-02-11 00:32:00,33.3,30.6,30.24,SSE,157,0.0,0.0,87,0.01,,,0.00,0.0,meteohub,2013-02-11 05:32:00,
2013-02-11 00:37:00,33.3,30.9,30.24,SSE,157,0.0,0.0,88,0.01,,,0.00,0.0,meteohub,2013-02-11 05:37:00,
2013-02-11 00:42:00,33.3,30.9,30.24,SSE,157,0.0,0.0,88,0.01,,,0.00,0.0,meteohub,2013-02-11 05:42:00,
2013-02-11 00:47:00,33.3,30.9,30.24,SSE,157,0.0,0.0,88,0.01,,,0.00,0.0,meteohub,2013-02-11 05:47:00,
2013-02-11 00:52:00,33.3,30.9,30.23,SSE,157,0.0,0.0,88,0.01,,,0.00,0.0,meteohub,2013-02-11 05:52:00,
2013-02-11 00:57:00,33.3,30.9,30.23,SSE,157,0.0,0.0,88,0.00,,,0.00,0.0,meteohub,2013-02-11 05:57:00,
2013-02-11 01:02:00,33.4,31.1,30.22,SSE,157,0.0,1.0,88,0.00,,,0.00,0.0,meteohub,2013-02-11 06:02:00,
2013-02-11 01:07:00,33.6,31.3,30.22,SSE,157,0.0,1.0,88,0.00,,,0.00,0.0,meteohub,2013-02-11 06:07:00,
2013-02-11 01:12:00,33.6,31.5,30.22,SSE,157,0.0,1.0,89,0.00,,,0.00,0.0,meteohub,2013-02-11 06:12:00,
2013-02-11 01:17:00,33.6,31.5,30.22,SSE,157,0.0,2.0,89,0.00,,,0.00,0.0,meteohub,2013-02-11 06:17:00,
2013-02-11 01:22:00,33.8,31.6,30.22,SSE,157,0.0,2.0,89,0.00,,,0.00,0.0,meteohub,2013-02-11 06:22:00,
2013-02-11 01:27:00,33.8,31.6,30.22,SSE,157,0.0,2.0,89,0.01,,,0.01,0.0,meteohub,2013-02-11 06:27:00,
2013-02-11 01:32:00,33.8,31.6,30.22,SSE,157,0.0,0.0,89,0.01,,,0.01,0.0,meteohub,2013-02-11 06:32:00,
2013-02-11 01:37:00,33.8,31.6,30.22,SSE,157,0.0,1.0,89,0.01,,,0.01,0.0,meteohub,2013-02-11 06:37:00,
2013-02-11 01:44:00,34.0,31.8,30.21,South,175,2.0,2.0,89,0.01,,,0.01,0.0,meteohub,2013-02-11 06:44:00,
2013-02-11 01:50:00,34.0,31.8,30.21,South,175,0.0,4.0,89,0.01,,,0.01,0.0,meteohub,2013-02-11 06:50:00,
2013-02-11 01:56:00,34.0,31.8,30.20,South,175,0.0,4.0,89,0.01,,,0.01,0.0,meteohub,2013-02-11 06:56:00,
2013-02-11 02:02:00,34.0,31.8,30.20,South,175,0.0,1.0,89,0.02,,,0.02,0.0,meteohub,2013-02-11 07:02:00,
2013-02-11 02:07:00,34.0,31.8,30.20,South,175,1.0,0.0,89,0.02,,,0.02,0.0,meteohub,2013-02-11 07:07:00,
2013-02-11 02:12:00,34.2,32.0,30.20,South,175,0.0,1.0,89,0.02,,,0.02,0.0,meteohub,2013-02-11 07:12:00,
2013-02-11 02:17:00,34.2,32.0,30.20,South,176,0.0,1.0,89,0.02,,,0.02,0.0,meteohub,2013-02-11 07:17:00,
2013-02-11 02:22:00,34.2,32.0,30.20,South,175,0.0,1.0,89,0.02,,,0.02,0.0,meteohub,2013-02-11 07:22:00,
2013-02-11 02:27:00,34.3,32.2,30.19,South,176,0.0,0.0,89,0.01,,,0.02,0.0,meteohub,2013-02-11 07:27:00,
2013-02-11 02:32:00,34.3,32.2,30.19,South,175,0.0,2.0,89,0.02,,,0.03,0.0,meteohub,2013-02-11 07:32:00,
2013-02-11 02:37:00,34.3,32.5,30.19,South,175,0.0,2.0,90,0.02,,,0.03,0.0,meteohub,2013-02-11 07:37:00,
2013-02-11 02:42:00,34.5,32.7,30.18,South,175,0.0,2.0,90,0.02,,,0.03,0.0,meteohub,2013-02-11 07:42:00,
2013-02-11 02:48:00,34.5,32.7,30.19,South,175,0.0,1.0,90,0.02,,,0.03,0.0,meteohub,2013-02-11 07:48:00,
2013-02-11 02:54:00,34.5,32.7,30.18,South,175,0.0,1.0,90,0.02,,,0.03,0.0,meteohub,2013-02-11 07:54:00,
2013-02-11 03:00:00,34.5,32.7,30.18,South,175,0.0,0.0,90,0.01,,,0.03,0.0,meteohub,2013-02-11 08:00:00,
2013-02-11 03:06:00,34.7,32.9,30.18,South,175,0.0,2.0,90,0.01,,,0.03,0.0,meteohub,2013-02-11 08:06:00,
2013-02-11 03:12:00,34.7,32.9,30.17,South,175,0.0,2.0,90,0.01,,,0.03,0.0,meteohub,2013-02-11 08:12:00,
2013-02-11 03:17:00,34.7,32.9,30.17,South,175,0.0,2.0,90,0.01,,,0.03,0.0,meteohub,2013-02-11 08:17:00,
2013-02-11 03:24:00,34.9,33.1,30.16,South,175,0.0,2.0,90,0.01,,,0.03,0.0,meteohub,2013-02-11 08:24:00,
2013-02-11 03:30:00,35.1,33.3,30.15,South,175,0.0,2.0,90,0.00,,,0.03,0.0,meteohub,2013-02-11 08:30:00,
2013-02-11 03:37:00,35.2,33.4,30.14,ESE,106,0.0,3.0,90,0.01,,,0.04,0.0,meteohub,2013-02-11 08:37:00,
2013-02-11 03:42:00,35.6,33.8,30.13,ESE,106,1.0,3.0,90,0.01,,,0.04,0.0,meteohub,2013-02-11 08:42:00,
2013-02-11 03:47:00,35.4,33.6,30.14,ESE,106,2.0,3.0,90,0.01,,,0.04,0.0,meteohub,2013-02-11 08:47:00,
2013-02-11 03:52:00,35.8,34.2,30.14,ENE,76,0.0,5.0,91,0.01,,,0.04,0.0,meteohub,2013-02-11 08:52:00,
2013-02-11 03:58:00,36.3,34.7,30.12,ENE,76,0.0,5.0,91,0.02,,,0.05,0.0,meteohub,2013-02-11 08:58:00,
2013-02-11 04:04:00,36.5,34.9,30.13,ENE,76,0.0,5.0,91,0.02,,,0.05,0.0,meteohub,2013-02-11 09:04:00,
2013-02-11 04:10:00,36.7,35.1,30.12,ENE,75,1.0,2.0,91,0.02,,,0.05,0.0,meteohub,2013-02-11 09:10:00,
2013-02-11 04:16:00,36.7,35.1,30.12,ENE,75,1.0,2.0,91,0.02,,,0.05,0.0,meteohub,2013-02-11 09:16:00,
2013-02-11 04:22:00,36.9,35.2,30.12,ENE,75,0.0,2.0,91,0.02,,,0.05,0.0,meteohub,2013-02-11 09:22:00,
2013-02-11 04:28:00,36.9,35.2,30.12,ENE,75,1.0,2.0,91,0.02,,,0.05,0.0,meteohub,2013-02-11 09:28:00,
2013-02-11 04:34:00,37.0,35.4,30.12,ENE,75,2.0,2.0,91,0.01,,,0.05,0.0,meteohub,2013-02-11 09:34:00,
2013-02-11 04:40:00,37.4,35.8,30.11,East,82,3.0,3.0,91,0.01,,,0.05,0.0,meteohub,2013-02-11 09:40:00,
2013-02-11 04:46:00,37.6,36.0,30.12,ENE,77,2.0,4.0,91,0.01,,,0.05,0.0,meteohub,2013-02-11 09:46:00,
2013-02-11 04:52:00,37.8,36.1,30.11,ENE,78,1.0,4.0,91,0.00,,,0.05,0.0,meteohub,2013-02-11 09:52:00,
2013-02-11 04:57:00,37.9,36.3,30.11,ENE,78,0.0,3.0,91,0.01,,,0.06,0.0,meteohub,2013-02-11 09:57:00,
2013-02-11 05:02:00,37.9,36.3,30.11,ENE,78,1.0,3.0,91,0.01,,,0.06,0.0,meteohub,2013-02-11 10:02:00,
2013-02-11 05:08:00,38.1,36.5,30.10,ENE,78,1.0,3.0,91,0.01,,,0.06,0.0,meteohub,2013-02-11 10:08:00,
2013-02-11 05:14:00,38.1,36.5,30.10,ENE,78,0.0,3.0,91,0.01,,,0.06,0.0,meteohub,2013-02-11 10:14:00,
2013-02-11 05:20:00,38.1,36.5,30.10,ENE,78,1.0,3.0,91,0.01,,,0.06,0.0,meteohub,2013-02-11 10:20:00,
2013-02-11 05:26:00,38.1,36.5,30.10,ENE,71,0.0,3.0,91,0.02,,,0.07,0.0,meteohub,2013-02-11 10:26:00,
2013-02-11 05:32:00,37.9,36.3,30.10,ENE,71,1.0,3.0,91,0.02,,,0.07,0.0,meteohub,2013-02-11 10:32:00,
2013-02-11 05:37:00,37.9,36.3,30.10,ENE,71,2.0,3.0,91,0.02,,,0.07,0.0,meteohub,2013-02-11 10:37:00,
2013-02-11 05:42:00,38.1,36.5,30.09,ENE,71,0.0,3.0,91,0.02,,,0.07,0.0,meteohub,2013-02-11 10:42:00,
2013-02-11 05:47:00,38.1,36.5,30.09,ENE,71,1.0,3.0,91,0.02,,,0.07,0.0,meteohub,2013-02-11 10:47:00,
2013-02-11 05:52:00,38.1,36.5,30.08,ENE,71,2.0,3.0,91,0.01,,,0.07,0.0,meteohub,2013-02-11 10:52:00,
2013-02-11 05:57:00,37.8,36.1,30.08,ENE,71,0.0,3.0,91,0.01,,,0.07,0.0,meteohub,2013-02-11 10:57:00,
2013-02-11 06:02:00,37.8,36.1,30.08,ENE,71,2.0,3.0,91,0.01,,,0.07,0.0,meteohub,2013-02-11 11:02:00,
2013-02-11 06:07:00,38.1,36.5,30.09,NE,53,0.0,3.0,91,0.01,,,0.07,0.0,meteohub,2013-02-11 11:07:00,
2013-02-11 06:12:00,38.3,36.7,30.08,ENE,61,2.0,4.0,91,0.01,,,0.07,0.0,meteohub,2013-02-11 11:12:00,
2013-02-11 06:17:00,38.3,36.7,30.08,ENE,62,1.0,4.0,91,0.01,,,0.07,0.0,meteohub,2013-02-11 11:17:00,
2013-02-11 06:22:00,38.1,36.5,30.08,ENE,62,1.0,3.0,91,0.00,,,0.07,0.0,meteohub,2013-02-11 11:22:00,
2013-02-11 06:27:00,38.1,36.5,30.08,ENE,61,1.0,3.0,91,0.00,,,0.07,0.0,meteohub,2013-02-11 11:27:00,
2013-02-11 06:32:00,38.3,36.7,30.08,East,84,0.0,3.0,91,0.00,,,0.07,0.0,meteohub,2013-02-11 11:32:00,
2013-02-11 06:39:00,39.0,37.4,30.09,East,87,2.0,4.0,91,0.00,,,0.07,0.0,meteohub,2013-02-11 11:39:00,
2013-02-11 06:45:00,39.4,37.8,30.07,ENE,59,3.0,4.0,91,0.00,,,0.07,0.0,meteohub,2013-02-11 11:45:00,
2013-02-11 06:51:00,39.7,38.5,30.07,North,10,1.0,4.0,92,0.00,,,0.07,0.0,meteohub,2013-02-11 11:51:00,
2013-02-11 06:57:00,40.1,38.5,30.07,East,80,3.0,5.0,91,0.00,,,0.07,0.0,meteohub,2013-02-11 11:57:00,
2013-02-11 07:02:00,40.3,39.0,30.06,SE,130,1.0,6.0,92,0.00,,,0.07,0.0,meteohub,2013-02-11 12:02:00,
2013-02-11 07:07:00,40.5,39.2,30.06,East,99,2.0,6.0,92,0.00,,,0.07,0.0,meteohub,2013-02-11 12:07:00,
2013-02-11 07:12:00,40.8,39.2,30.05,SSE,161,9.0,9.0,91,0.00,,,0.07,0.0,meteohub,2013-02-11 12:12:00,
2013-02-11 07:17:00,40.8,39.2,30.05,South,181,4.0,10.0,91,0.00,,,0.07,0.0,meteohub,2013-02-11 12:17:00,
2013-02-11 07:22:00,40.8,39.2,30.06,ENE,68,4.0,10.0,91,0.00,,,0.07,0.0,meteohub,2013-02-11 12:22:00,
2013-02-11 07:27:00,40.8,39.2,30.06,East,80,3.0,10.0,91,0.00,,,0.07,0.0,meteohub,2013-02-11 12:27:00,
2013-02-11 07:32:00,40.8,39.0,30.06,SE,139,0.0,8.0,90,0.00,,,0.07,0.0,meteohub,2013-02-11 12:32:00,
2013-02-11 07:37:00,40.8,39.0,30.04,East,89,3.0,7.0,90,0.00,,,0.07,7.0,meteohub,2013-02-11 12:37:00,
2013-02-11 07:42:00,40.8,39.0,30.05,East,84,3.0,7.0,90,0.00,,,0.07,7.0,meteohub,2013-02-11 12:42:00,
2013-02-11 07:47:00,40.8,39.0,30.05,SE,143,3.0,5.0,90,0.00,,,0.07,9.0,meteohub,2013-02-11 12:47:00,
2013-02-11 07:52:00,41.0,39.2,30.05,ESE,115,4.0,5.0,90,0.00,,,0.07,11.0,meteohub,2013-02-11 12:52:00,
2013-02-11 07:57:00,41.0,39.2,30.05,East,88,2.0,5.0,90,0.00,,,0.07,28.0,meteohub,2013-02-11 12:57:00,
2013-02-11 08:04:00,41.2,39.4,30.05,SE,126,5.0,5.0,90,0.00,,,0.07,46.0,meteohub,2013-02-11 13:04:00,
2013-02-11 08:10:00,41.4,39.6,30.04,South,171,1.0,10.0,90,0.00,,,0.07,51.0,meteohub,2013-02-11 13:10:00,
2013-02-11 08:16:00,41.7,39.6,30.05,SE,143,4.0,10.0,89,0.00,,,0.07,44.0,meteohub,2013-02-11 13:16:00,
2013-02-11 08:22:00,41.9,39.7,30.04,ESE,105,1.0,10.0,89,0.00,,,0.07,49.0,meteohub,2013-02-11 13:22:00,
2013-02-11 08:27:00,41.9,39.7,30.04,NNE,23,1.0,9.0,89,0.00,,,0.07,63.0,meteohub,2013-02-11 13:27:00,
2013-02-11 08:34:00,41.9,39.7,30.04,ENE,59,2.0,6.0,89,0.00,,,0.07,63.0,meteohub,2013-02-11 13:34:00,
2013-02-11 08:41:00,42.1,39.9,30.03,SW,219,1.0,6.0,89,0.00,,,0.07,97.0,meteohub,2013-02-11 13:41:00,
2013-02-11 08:47:00,42.1,39.9,30.03,South,187,0.0,10.0,89,0.00,,,0.07,83.0,meteohub,2013-02-11 13:47:00,
2013-02-11 08:52:00,42.3,39.7,30.02,ESE,106,3.0,10.0,88,0.00,,,0.07,95.0,meteohub,2013-02-11 13:52:00,
2013-02-11 08:57:00,42.3,39.7,30.02,ESE,111,7.0,7.0,88,0.00,,,0.07,95.0,meteohub,2013-02-11 13:57:00,
2013-02-11 09:02:00,42.3,39.7,30.02,East,95,1.0,10.0,88,0.00,,,0.07,91.0,meteohub,2013-02-11 14:02:00,
2013-02-11 09:08:00,42.4,39.9,30.02,SSE,150,0.0,10.0,88,0.00,,,0.07,93.0,meteohub,2013-02-11 14:08:00,
2013-02-11 09:14:00,42.6,40.1,30.01,SSW,198,5.0,10.0,88,0.00,,,0.07,81.0,meteohub,2013-02-11 14:14:00,
2013-02-11 09:20:00,42.6,40.1,30.01,SE,140,2.0,9.0,88,0.00,,,0.07,76.0,meteohub,2013-02-11 14:20:00,
2013-02-11 09:26:00,42.8,40.3,30.01,SE,146,6.0,6.0,88,0.00,,,0.07,158.0,meteohub,2013-02-11 14:26:00,
2013-02-11 09:32:00,43.2,40.6,30.01,ENE,71,1.0,6.0,88,0.00,,,0.07,174.0,meteohub,2013-02-11 14:32:00,
2013-02-11 09:38:00,43.7,41.2,30.01,ESE,119,4.0,6.0,88,0.00,,,0.07,128.0,meteohub,2013-02-11 14:38:00,
2013-02-11 09:44:00,44.1,41.5,30.01,East,98,0.0,6.0,88,0.00,,,0.07,144.0,meteohub,2013-02-11 14:44:00,
2013-02-11 09:50:00,44.4,41.7,30.01,ESE,105,4.0,7.0,87,0.00,,,0.07,118.0,meteohub,2013-02-11 14:50:00,
2013-02-11 09:56:00,44.6,41.9,30.01,SSW,200,1.0,7.0,87,0.00,,,0.07,265.0,meteohub,2013-02-11 14:56:00,
2013-02-11 10:02:00,44.6,41.5,30.00,South,182,4.0,7.0,86,0.00,,,0.07,165.0,meteohub,2013-02-11 15:02:00,
2013-02-11 10:07:00,44.8,41.7,29.99,SE,142,1.0,8.0,86,0.00,,,0.07,239.0,meteohub,2013-02-11 15:07:00,
2013-02-11 10:12:00,44.8,41.7,29.99,SW,219,3.0,8.0,86,0.00,,,0.07,367.0,meteohub,2013-02-11 15:12:00,
2013-02-11 10:17:00,45.3,42.6,29.98,SSE,148,4.0,8.0,87,0.00,,,0.07,339.0,meteohub,2013-02-11 15:17:00,
2013-02-11 10:22:00,45.7,42.6,29.99,NNE,17,3.0,7.0,86,0.00,,,0.07,418.0,meteohub,2013-02-11 15:22:00,
2013-02-11 10:27:00,45.9,42.4,30.00,SSW,201,6.0,7.0,85,0.00,,,0.07,369.0,meteohub,2013-02-11 15:27:00,
2013-02-11 10:32:00,46.2,42.8,29.98,West,269,4.0,14.0,85,0.00,,,0.07,295.0,meteohub,2013-02-11 15:32:00,
2013-02-11 10:37:00,46.6,43.2,29.99,SE,138,2.0,14.0,85,0.00,,,0.07,476.0,meteohub,2013-02-11 15:37:00,
2013-02-11 10:42:00,47.3,43.9,29.98,NNW,345,0.0,14.0,85,0.00,,,0.07,645.0,meteohub,2013-02-11 15:42:00,
2013-02-11 10:48:00,48.0,44.1,29.98,ENE,65,1.0,12.0,83,0.00,,,0.07,691.0,meteohub,2013-02-11 15:48:00,
2013-02-11 10:54:00,48.6,44.6,29.97,SSE,162,2.0,12.0,83,0.00,,,0.07,457.0,meteohub,2013-02-11 15:54:00,
2013-02-11 11:00:00,48.9,44.6,29.97,East,94,5.0,13.0,82,0.00,,,0.07,830.0,meteohub,2013-02-11 16:00:00,
2013-02-11 11:06:00,48.7,44.1,29.96,South,190,3.0,13.0,81,0.00,,,0.07,327.0,meteohub,2013-02-11 16:06:00,
2013-02-11 11:12:00,48.4,44.1,29.96,SE,130,2.0,13.0,82,0.00,,,0.07,606.0,meteohub,2013-02-11 16:12:00,
2013-02-11 11:17:00,48.6,44.6,29.96,SSW,199,2.0,9.0,83,0.00,,,0.07,605.0,meteohub,2013-02-11 16:17:00,
2013-02-11 11:24:00,49.3,45.3,29.96,South,175,6.0,11.0,83,0.00,,,0.07,378.0,meteohub,2013-02-11 16:24:00,
2013-02-11 11:31:00,49.5,44.8,29.95,SW,220,4.0,13.0,81,0.00,,,0.07,315.0,meteohub,2013-02-11 16:31:00,
2013-02-11 11:37:00,49.3,45.0,29.95,South,177,6.0,13.0,82,0.00,,,0.07,288.0,meteohub,2013-02-11 16:37:00,
2013-02-11 11:42:00,49.1,44.8,29.95,South,173,7.0,14.0,82,0.00,,,0.07,281.0,meteohub,2013-02-11 16:42:00,
2013-02-11 11:47:00,49.1,45.1,29.95,South,178,3.0,14.0,83,0.00,,,0.07,281.0,meteohub,2013-02-11 16:47:00,
2013-02-11 11:52:00,48.9,45.0,29.94,South,186,11.0,12.0,83,0.00,,,0.07,257.0,meteohub,2013-02-11 16:52:00,
2013-02-11 11:57:00,48.9,45.0,29.94,SSE,151,7.0,12.0,83,0.00,,,0.07,322.0,meteohub,2013-02-11 16:57:00,
2013-02-11 12:02:00,49.1,45.1,29.94,NNW,348,10.0,17.0,83,0.01,,,0.08,466.0,meteohub,2013-02-11 17:02:00,
2013-02-11 12:07:00,49.3,45.5,29.93,ESE,120,4.0,17.0,84,0.01,,,0.08,394.0,meteohub,2013-02-11 17:07:00,
2013-02-11 12:12:00,49.8,46.0,29.93,SSE,168,7.0,17.0,84,0.01,,,0.08,339.0,meteohub,2013-02-11 17:12:00,
2013-02-11 12:17:00,50.0,46.0,29.92,SE,137,6.0,13.0,83,0.01,,,0.08,301.0,meteohub,2013-02-11 17:17:00,
2013-02-11 12:22:00,50.0,46.0,29.92,South,179,9.0,13.0,83,0.01,,,0.08,258.0,meteohub,2013-02-11 17:22:00,
2013-02-11 12:27:00,50.0,46.0,29.92,SSE,163,0.0,14.0,83,0.01,,,0.08,246.0,meteohub,2013-02-11 17:27:00,
2013-02-11 12:32:00,49.8,45.9,29.92,SSW,198,2.0,15.0,83,0.01,,,0.08,234.0,meteohub,2013-02-11 17:32:00,
2013-02-11 12:38:00,50.0,46.0,29.92,SSW,192,9.0,15.0,83,0.01,,,0.08,285.0,meteohub,2013-02-11 17:38:00,
2013-02-11 12:44:00,50.2,46.2,29.92,SSW,192,5.0,15.0,83,0.01,,,0.08,283.0,meteohub,2013-02-11 17:44:00,
2013-02-11 12:50:00,50.4,46.4,29.92,South,173,7.0,10.0,83,0.01,,,0.08,246.0,meteohub,2013-02-11 17:50:00,
2013-02-11 12:56:00,50.2,46.2,29.92,SSW,211,2.0,15.0,83,0.01,,,0.08,223.0,meteohub,2013-02-11 17:56:00,
2013-02-11 13:02:00,50.2,46.2,29.91,SW,215,11.0,15.0,83,0.00,,,0.08,241.0,meteohub,2013-02-11 18:02:00,
2013-02-11 13:07:00,50.4,46.4,29.91,WSW,244,6.0,15.0,83,0.00,,,0.08,244.0,meteohub,2013-02-11 18:07:00,
2013-02-11 13:12:00,50.4,46.4,29.90,SSE,160,6.0,12.0,83,0.00,,,0.08,250.0,meteohub,2013-02-11 18:12:00,
2013-02-11 13:17:00,50.5,46.6,29.90,SSW,207,2.0,14.0,83,0.00,,,0.08,251.0,meteohub,2013-02-11 18:17:00,
2013-02-11 13:22:00,50.7,46.8,29.90,South,180,1.0,14.0,83,0.00,,,0.08,257.0,meteohub,2013-02-11 18:22:00,
2013-02-11 13:29:00,50.9,46.9,29.89,South,185,15.0,15.0,83,0.00,,,0.08,253.0,meteohub,2013-02-11 18:29:00,
2013-02-11 13:35:00,51.3,47.1,29.89,SSW,196,6.0,15.0,83,0.00,,,0.08,244.0,meteohub,2013-02-11 18:35:00,
2013-02-11 13:41:00,51.3,47.1,29.88,WSW,244,6.0,15.0,83,0.00,,,0.08,248.0,meteohub,2013-02-11 18:41:00,
2013-02-11 13:47:00,51.4,47.3,29.88,NE,46,3.0,13.0,83,0.00,,,0.08,221.0,meteohub,2013-02-11 18:47:00,
2013-02-11 13:52:00,51.4,47.3,29.89,SW,224,4.0,19.0,83,0.00,,,0.08,202.0,meteohub,2013-02-11 18:52:00,
2013-02-11 13:57:00,51.4,47.7,29.88,SSW,213,6.0,19.0,84,0.00,,,0.08,188.0,meteohub,2013-02-11 18:57:00,
2013-02-11 14:02:00,51.6,47.8,29.87,SSW,199,2.0,19.0,84,0.00,,,0.08,260.0,meteohub,2013-02-11 19:02:00,
2013-02-11 14:07:00,51.8,48.0,29.86,SSE,157,9.0,16.0,84,0.00,,,0.08,295.0,meteohub,2013-02-11 19:07:00,
2013-02-11 14:12:00,52.0,48.2,29.86,South,184,3.0,14.0,84,0.00,,,0.08,178.0,meteohub,2013-02-11 19:12:00,
2013-02-11 14:18:00,52.3,48.6,29.86,SSW,211,1.0,14.0,84,0.00,,,0.08,123.0,meteohub,2013-02-11 19:18:00,
2013-02-11 14:24:00,52.5,48.7,29.86,SSE,150,6.0,14.0,84,0.00,,,0.08,155.0,meteohub,2013-02-11 19:24:00,
2013-02-11 14:30:00,52.5,48.7,29.86,SSW,201,3.0,16.0,84,0.00,,,0.08,181.0,meteohub,2013-02-11 19:30:00,
2013-02-11 14:36:00,52.9,49.1,29.86,NNW,334,2.0,16.0,84,0.00,,,0.08,204.0,meteohub,2013-02-11 19:36:00,
2013-02-11 14:42:00,53.2,49.5,29.86,ENE,71,1.0,11.0,84,0.00,,,0.08,229.0,meteohub,2013-02-11 19:42:00,
2013-02-11 14:47:00,53.6,49.8,29.87,SE,139,4.0,11.0,84,0.00,,,0.08,206.0,meteohub,2013-02-11 19:47:00,
2013-02-11 14:52:00,53.8,50.0,29.86,SW,235,4.0,11.0,84,0.00,,,0.08,183.0,meteohub,2013-02-11 19:52:00,
2013-02-11 14:57:00,54.1,50.0,29.86,SSE,164,6.0,14.0,83,0.00,,,0.08,137.0,meteohub,2013-02-11 19:57:00,
2013-02-11 15:03:00,54.3,50.2,29.86,South,191,2.0,15.0,83,0.00,,,0.08,127.0,meteohub,2013-02-11 20:03:00,
2013-02-11 15:09:00,54.3,50.2,29.86,SE,141,5.0,15.0,83,0.00,,,0.08,151.0,meteohub,2013-02-11 20:09:00,
2013-02-11 15:16:00,54.5,50.4,29.86,SSE,165,2.0,16.0,83,0.00,,,0.08,153.0,meteohub,2013-02-11 20:16:00,
2013-02-11 15:22:00,54.7,50.5,29.86,SSW,209,4.0,19.0,83,0.00,,,0.08,141.0,meteohub,2013-02-11 20:22:00,
2013-02-11 15:27:00,54.7,50.5,29.86,NNW,343,3.0,19.0,83,0.00,,,0.08,139.0,meteohub,2013-02-11 20:27:00,
2013-02-11 15:34:00,54.9,50.7,29.86,NW,306,2.0,19.0,83,0.00,,,0.08,130.0,meteohub,2013-02-11 20:34:00,
2013-02-11 15:40:00,54.9,50.7,29.85,South,177,3.0,14.0,83,0.00,,,0.08,137.0,meteohub,2013-02-11 20:40:00,
2013-02-11 15:46:00,55.0,50.9,29.84,SSW,196,1.0,13.0,83,0.00,,,0.08,118.0,meteohub,2013-02-11 20:46:00,
2013-02-11 15:52:00,55.2,50.7,29.84,South,169,5.0,17.0,82,0.00,,,0.08,114.0,meteohub,2013-02-11 20:52:00,
2013-02-11 15:57:00,55.2,50.7,29.84,South,175,5.0,17.0,82,0.00,,,0.08,111.0,meteohub,2013-02-11 20:57:00,
2013-02-11 16:02:00,55.4,50.9,29.84,South,188,10.0,13.0,82,0.00,,,0.08,111.0,meteohub,2013-02-11 21:02:00,
2013-02-11 16:07:00,55.4,50.9,29.83,WSW,240,4.0,16.0,82,0.00,,,0.08,100.0,meteohub,2013-02-11 21:07:00,
2013-02-11 16:12:00,55.4,50.9,29.83,SE,134,4.0,16.0,82,0.00,,,0.08,100.0,meteohub,2013-02-11 21:12:00,
2013-02-11 16:17:00,55.4,50.9,29.83,SW,224,6.0,16.0,82,0.00,,,0.08,84.0,meteohub,2013-02-11 21:17:00,
2013-02-11 16:22:00,55.6,51.1,29.83,South,183,3.0,16.0,82,0.00,,,0.08,83.0,meteohub,2013-02-11 21:22:00,
2013-02-11 16:28:00,55.6,51.1,29.83,ENE,57,1.0,16.0,82,0.00,,,0.08,79.0,meteohub,2013-02-11 21:28:00,
2013-02-11 16:34:00,55.6,51.1,29.83,South,177,12.0,16.0,82,0.00,,,0.08,69.0,meteohub,2013-02-11 21:34:00,
2013-02-11 16:41:00,55.6,51.1,29.83,ESE,107,3.0,13.0,82,0.00,,,0.08,69.0,meteohub,2013-02-11 21:41:00,
2013-02-11 16:47:00,55.6,51.1,29.83,South,172,2.0,13.0,82,0.00,,,0.08,63.0,meteohub,2013-02-11 21:47:00,
2013-02-11 16:53:00,55.6,50.9,29.82,SSE,161,6.0,11.0,81,0.00,,,0.08,51.0,meteohub,2013-02-11 21:53:00,
2013-02-11 16:59:00,55.8,51.1,29.83,SSW,196,5.0,11.0,81,0.00,,,0.08,44.0,meteohub,2013-02-11 21:59:00,
2013-02-11 17:05:00,55.9,50.9,29.82,South,176,7.0,11.0,80,0.00,,,0.08,37.0,meteohub,2013-02-11 22:05:00,
2013-02-11 17:11:00,56.1,51.1,29.82,SSW,194,2.0,11.0,80,0.00,,,0.08,26.0,meteohub,2013-02-11 22:11:00,
2013-02-11 17:17:00,56.1,51.1,29.82,SSW,212,1.0,11.0,80,0.00,,,0.08,21.0,meteohub,2013-02-11 22:17:00,
2013-02-11 17:22:00,56.1,50.7,29.82,SW,226,4.0,13.0,79,0.00,,,0.08,16.0,meteohub,2013-02-11 22:22:00,
2013-02-11 17:29:00,56.3,50.5,29.82,SE,136,4.0,13.0,78,0.00,,,0.08,12.0,meteohub,2013-02-11 22:29:00,
2013-02-11 17:35:00,56.5,50.0,29.81,WNW,293,0.0,10.0,76,0.00,,,0.08,7.0,meteohub,2013-02-11 22:35:00,
2013-02-11 17:41:00,56.8,50.0,29.82,WNW,288,2.0,9.0,75,0.00,,,0.08,5.0,meteohub,2013-02-11 22:41:00,
2013-02-11 17:47:00,57.0,50.2,29.82,West,281,9.0,9.0,75,0.00,,,0.08,0.0,meteohub,2013-02-11 22:47:00,
2013-02-11 17:52:00,57.4,50.2,29.82,SE,132,2.0,13.0,74,0.00,,,0.08,0.0,meteohub,2013-02-11 22:52:00,
2013-02-11 17:57:00,57.4,49.8,29.82,WNW,290,1.0,13.0,73,0.00,,,0.08,0.0,meteohub,2013-02-11 22:57:00,
2013-02-11 18:02:00,57.6,50.0,29.81,WNW,298,5.0,13.0,73,0.00,,,0.08,0.0,meteohub,2013-02-11 23:02:00,
2013-02-11 18:07:00,57.6,50.0,29.81,WNW,298,7.0,7.0,73,0.00,,,0.08,0.0,meteohub,2013-02-11 23:07:00,
2013-02-11 18:12:00,57.4,49.8,29.81,South,177,0.0,10.0,73,0.00,,,0.08,0.0,meteohub,2013-02-11 23:12:00,
2013-02-11 18:17:00,57.2,49.6,29.81,SSE,150,2.0,10.0,73,0.00,,,0.08,0.0,meteohub,2013-02-11 23:17:00,
2013-02-11 18:22:00,57.2,49.6,29.81,WNW,303,5.0,10.0,73,0.00,,,0.08,0.0,meteohub,2013-02-11 23:22:00,
2013-02-11 18:27:00,57.2,49.6,29.81,NNW,331,1.0,8.0,73,0.00,,,0.08,0.0,meteohub,2013-02-11 23:27:00,
2013-02-11 18:32:00,57.2,49.3,29.80,South,174,6.0,8.0,72,0.00,,,0.08,0.0,meteohub,2013-02-11 23:32:00,
2013-02-11 18:37:00,57.2,49.3,29.81,WNW,288,9.0,10.0,72,0.00,,,0.08,0.0,meteohub,2013-02-11 23:37:00,
2013-02-11 18:42:00,57.4,49.1,29.81,SSW,213,0.0,11.0,71,0.00,,,0.08,0.0,meteohub,2013-02-11 23:42:00,
2013-02-11 18:47:00,57.6,48.9,29.80,NW,321,2.0,11.0,70,0.00,,,0.08,0.0,meteohub,2013-02-11 23:47:00,
2013-02-11 18:52:00,57.6,48.6,29.81,WNW,297,2.0,11.0,69,0.00,,,0.08,0.0,meteohub,2013-02-11 23:52:00,
2013-02-11 18:57:00,57.6,48.6,29.81,NW,315,4.0,11.0,69,0.00,,,0.08,0.0,meteohub,2013-02-11 23:57:00,
2013-02-11 19:03:00,57.7,48.4,29.81,SW,214,13.0,13.0,68,0.00,,,0.08,0.0,meteohub,2013-02-12 00:03:00,
2013-02-11 19:09:00,57.9,48.2,29.81,SW,235,5.0,13.0,67,0.00,,,0.08,0.0,meteohub,2013-02-12 00:09:00,
2013-02-11 19:15:00,57.9,48.2,29.81,West,278,3.0,13.0,67,0.00,,,0.08,0.0,meteohub,2013-02-12 00:15:00,
2013-02-11 19:21:00,57.9,48.2,29.81,SSW,194,4.0,12.0,67,0.00,,,0.08,0.0,meteohub,2013-02-12 00:21:00,
2013-02-11 19:27:00,57.9,48.2,29.81,WNW,295,9.0,12.0,67,0.00,,,0.08,0.0,meteohub,2013-02-12 00:27:00,
2013-02-11 19:34:00,57.7,48.0,29.80,WNW,288,3.0,13.0,67,0.00,,,0.08,0.0,meteohub,2013-02-12 00:34:00,
2013-02-11 19:40:00,57.6,47.8,29.81,SW,229,2.0,13.0,67,0.00,,,0.08,0.0,meteohub,2013-02-12 00:40:00,
2013-02-11 19:46:00,57.4,47.7,29.81,NW,313,5.0,12.0,67,0.00,,,0.08,0.0,meteohub,2013-02-12 00:46:00,
2013-02-11 19:52:00,57.4,47.7,29.81,WNW,293,5.0,12.0,67,0.00,,,0.08,0.0,meteohub,2013-02-12 00:52:00,
2013-02-11 19:57:00,57.4,47.7,29.81,West,275,2.0,15.0,67,0.00,,,0.08,0.0,meteohub,2013-02-12 00:57:00,
2013-02-11 20:02:00,57.4,47.3,29.81,WNW,284,2.0,15.0,66,0.00,,,0.08,0.0,meteohub,2013-02-12 01:02:00,
2013-02-11 20:07:00,57.2,46.8,29.81,WNW,295,4.0,16.0,65,0.00,,,0.08,0.0,meteohub,2013-02-12 01:07:00,
2013-02-11 20:13:00,57.2,46.8,29.82,NW,309,3.0,16.0,65,0.00,,,0.08,0.0,meteohub,2013-02-12 01:13:00,
2013-02-11 20:19:00,57.2,46.4,29.82,SSE,150,1.0,9.0,64,0.00,,,0.08,0.0,meteohub,2013-02-12 01:19:00,
2013-02-11 20:25:00,57.2,45.9,29.82,South,184,1.0,10.0,63,0.00,,,0.08,0.0,meteohub,2013-02-12 01:25:00,
2013-02-11 20:31:00,57.0,45.7,29.82,South,184,2.0,10.0,63,0.00,,,0.08,0.0,meteohub,2013-02-12 01:31:00,
2013-02-11 20:37:00,56.8,45.5,29.82,WSW,250,2.0,10.0,63,0.00,,,0.08,0.0,meteohub,2013-02-12 01:37:00,
2013-02-11 20:42:00,56.7,45.5,29.82,SE,141,5.0,7.0,63,0.00,,,0.08,0.0,meteohub,2013-02-12 01:42:00,
2013-02-11 20:47:00,56.5,44.8,29.82,SSW,196,9.0,9.0,62,0.00,,,0.08,0.0,meteohub,2013-02-12 01:47:00,
2013-02-11 20:53:00,56.3,44.6,29.82,South,176,6.0,13.0,62,0.00,,,0.08,0.0,meteohub,2013-02-12 01:53:00,
2013-02-11 20:59:00,56.3,44.6,29.82,SSW,195,7.0,13.0,62,0.00,,,0.08,0.0,meteohub,2013-02-12 01:59:00,
2013-02-11 21:05:00,56.1,44.1,29.82,South,175,4.0,13.0,61,0.00,,,0.08,0.0,meteohub,2013-02-12 02:05:00,
2013-02-11 21:11:00,55.8,43.7,29.82,SSE,166,0.0,13.0,61,0.00,,,0.08,0.0,meteohub,2013-02-12 02:11:00,
2013-02-11 21:17:00,55.6,42.3,29.82,ESE,108,2.0,10.0,58,0.00,,,0.08,0.0,meteohub,2013-02-12 02:17:00,
2013-02-11 21:22:00,55.4,43.9,29.82,ENE,69,5.0,5.0,62,0.00,,,0.08,0.0,meteohub,2013-02-12 02:22:00,
2013-02-11 21:27:00,54.7,43.2,29.82,ENE,65,2.0,5.0,62,0.00,,,0.08,0.0,meteohub,2013-02-12 02:27:00,
2013-02-11 21:32:00,54.3,43.2,29.83,NE,53,1.0,5.0,63,0.00,,,0.08,0.0,meteohub,2013-02-12 02:32:00,
2013-02-11 21:37:00,53.4,43.5,29.82,ESE,121,3.0,5.0,66,0.00,,,0.08,0.0,meteohub,2013-02-12 02:37:00,
2013-02-11 21:42:00,52.5,43.0,29.82,ENE,68,2.0,5.0,67,0.00,,,0.08,0.0,meteohub,2013-02-12 02:42:00,
2013-02-11 21:47:00,51.8,40.8,29.82,North,0,5.0,7.0,63,0.00,,,0.08,0.0,meteohub,2013-02-12 02:47:00,
2013-02-11 21:52:00,52.3,41.4,29.82,South,182,1.0,7.0,63,0.00,,,0.08,0.0,meteohub,2013-02-12 02:52:00,
2013-02-11 21:57:00,52.9,40.6,29.82,South,178,1.0,6.0,60,0.00,,,0.08,0.0,meteohub,2013-02-12 02:57:00,
2013-02-11 22:02:00,53.2,37.9,29.82,West,281,6.0,6.0,53,0.00,,,0.08,0.0,meteohub,2013-02-12 03:02:00,
2013-02-11 22:07:00,55.6,30.9,29.82,SW,235,5.0,7.0,36,0.00,,,0.08,0.0,meteohub,2013-02-12 03:07:00,
2013-02-11 22:12:00,57.6,31.5,29.83,WNW,282,3.0,16.0,34,0.00,,,0.08,0.0,meteohub,2013-02-12 03:12:00,
2013-02-11 22:17:00,58.3,29.3,29.82,WNW,284,2.0,16.0,30,0.00,,,0.08,0.0,meteohub,2013-02-12 03:17:00,
2013-02-11 22:22:00,58.5,28.6,29.82,NNW,344,3.0,15.0,29,0.00,,,0.08,0.0,meteohub,2013-02-12 03:22:00,
2013-02-11 22:27:00,58.8,26.6,29.82,WSW,248,14.0,15.0,26,0.00,,,0.08,0.0,meteohub,2013-02-12 03:27:00,
2013-02-11 22:32:00,59.0,26.8,29.82,WNW,284,4.0,15.0,26,0.00,,,0.08,0.0,meteohub,2013-02-12 03:32:00,
2013-02-11 22:39:00,59.0,25.0,29.82,NW,307,7.0,16.0,24,0.00,,,0.08,0.0,meteohub,2013-02-12 03:39:00,
2013-02-11 22:45:00,58.5,26.2,29.83,WNW,303,2.0,16.0,26,0.00,,,0.08,0.0,meteohub,2013-02-12 03:45:00,
2013-02-11 22:51:00,58.3,25.3,29.82,West,277,0.0,16.0,25,0.00,,,0.08,0.0,meteohub,2013-02-12 03:51:00,
2013-02-11 22:57:00,58.3,25.3,29.83,West,277,5.0,16.0,25,0.00,,,0.08,0.0,meteohub,2013-02-12 03:57:00,
2013-02-11 23:02:00,58.3,24.4,29.83,WNW,287,6.0,16.0,24,0.00,,,0.08,0.0,meteohub,2013-02-12 04:02:00,
2013-02-11 23:07:00,58.3,24.4,29.83,SSW,205,5.0,11.0,24,0.00,,,0.08,0.0,meteohub,2013-02-12 04:07:00,
2013-02-11 23:12:00,58.3,24.4,29.83,North,0,1.0,13.0,24,0.00,,,0.08,0.0,meteohub,2013-02-12 04:12:00,
2013-02-11 23:17:00,58.1,24.3,29.83,West,271,3.0,13.0,24,0.00,,,0.08,0.0,meteohub,2013-02-12 04:17:00,
2013-02-11 23:22:00,58.1,24.3,29.83,NNW,342,0.0,13.0,24,0.00,,,0.08,0.0,meteohub,2013-02-12 04:22:00,
2013-02-11 23:28:00,57.9,25.9,29.83,NNE,13,10.0,15.0,26,0.00,,,0.08,0.0,meteohub,2013-02-12 04:28:00,
2013-02-11 23:34:00,57.6,25.5,29.84,WNW,303,4.0,15.0,26,0.00,,,0.08,0.0,meteohub,2013-02-12 04:34:00,
2013-02-11 23:40:00,57.4,24.4,29.84,West,275,1.0,15.0,25,0.00,,,0.08,0.0,meteohub,2013-02-12 04:40:00,
2013-02-11 23:46:00,57.2,25.2,29.85,West,269,2.0,10.0,26,0.00,,,0.08,0.0,meteohub,2013-02-12 04:46:00,
2013-02-11 23:52:00,56.8,24.8,29.84,West,260,5.0,6.0,26,0.00,,,0.08,0.0,meteohub,2013-02-12 04:52:00,
2013-02-11 23:57:00,56.7,24.6,29.85,West,275,1.0,16.0,26,0.00,,,0.08,0.0,meteohub,2013-02-12 04:57:00,